Location: Bratislava
(48.1500°N, 17.1170°E)
Time: 20:42:21
(UTC+02:00)

OTV 5 (USA 277) - Visible Passes

Search period start: 20 October 2019 00:00
Search period end: 29 October 2019 23:00
Orbit: 310 x 324 km, 54.5° (Epoch: 17 October)

Date Brightness Start Highest point End Pass type
(mag) Time Alt. Az. Time Alt. Az. Time Alt. Az.
20 Oct ? 05:34:07 26° S 05:34:07 26° S 05:35:42 10° SSE visible
21 Oct ? 05:48:52 12° SSW 05:48:52 12° SSW 05:49:17 10° S visible
28 Oct ? 18:07:08 10° S 18:07:46 13° SSE 18:07:46 13° SSE visible
29 Oct ? 18:20:39 10° SSW 18:22:16 26° S 18:22:16 26° S visible
